Location: Plainartige
(45.6866°N, 1.7993°E)
Time: 13:51:01
(UTC+00:00)

DIWATA 2B (PO-101) - Pass Details

Date: 06 July 2022
Orbit: 583 x 599 km, 98.0° (Epoch: 19 August)

Event Time Altitude Azimuth Distance (km) Brightness Sun altitude
Exits shadow 02:20:59 24° 214° (SW) 1,256 ? -14.3°
Maximum altitude 02:22:51 36° 262° (W) 959 ? -14.1°
Drops below altitude 10° 02:26:47 10° 330° (NNW) 1,949 ? -13.7°
Sets 02:29:06 0° 339° (NNW) 2,856 ? -13.4°
